#timestamp,LO_Frequency,Hit,StdDev 
1584518415.4,286047002.5,N
1584518435.2,286047001.5,N
1584518455.0,286047001.9,N
1584518455.9,286047001.9,N
1584518475.8,286047000.9,N
1584518495.6,286047002.8,N
1584518515.4,286047002.6,N
1584518535.3,286047000.1,N
1584518555.1,286047002.4,N
1584518575.9,286047000.9,N
1584518595.7,286046998.5,N
1584518615.5,286046998.7,N
1584518635.4,286046998.8,N
1584518655.2,286046996.6,N
1584518675.1,286046996.8,N
1584518676.0,286046996.8,N
1584518695.8,286046997.7,N
1584518715.6,286046994.9,N
1584518735.5,286046997.0,N
1584518755.3,286046998.9,N
1584518775.1,286046999.1,N
1584518795.9,286046996.8,N
1584518815.7,286046999.5,N
1584518835.6,286046997.3,N
1584518855.4,286046998.0,N
1584518875.2,286046995.7,N
1584518895.1,286046993.4,N
1584518896.0,286046993.4,N
1584518915.8,286046995.9,N
1584518935.7,286046997.9,N
1584518955.5,286046995.4,N
1584518975.3,286046995.5,N
1584518995.2,286046993.3,N
1584519015.0,286046993.3,N
1584519015.9,286046993.3,N
1584519035.7,286046993.6,N
1584519055.6,286046995.7,N
1584519075.4,286046999.3,N
1584519095.3,286046997.2,N
1584519115.1,286046998.7,N
1584519116.0,286046998.7,N
1584519135.8,286046999.5,N
1584519155.7,286046996.6,N
1584519175.5,286046997.0,N
1584519195.4,286046995.3,N
1584519215.2,286046995.6,N
1584519235.0,286046997.8,N
1584519235.9,286046997.8,N
1584519255.8,286046998.0,N
1584519275.6,286046993.4,Y
1584519295.4,286046998.2,P
1584519315.3,286047000.2,N
1584519335.1,286047000.5,N
1584519355.9,286047001.1,N
1584519375.7,286047000.9,N
1584519395.5,286047000.9,N
1584519415.4,286046998.6,N
1584519435.2,286046999.1,N
1584519455.0,286046998.7,N
1584519456.0,286046998.7,N
1584519475.8,286047000.3,N
1584519495.6,286046999.8,N
1584519515.5,286046998.5,N
1584519535.3,286046998.3,N
1584519555.1,286047000.2,N
1584519575.9,286047001.2,N
1584519595.7,286047000.1,N
1584519615.6,286047002.7,N
1584519635.4,286047000.6,N
1584519655.2,286047000.4,N
1584519675.1,286046999.3,N
1584519676.0,286046999.3,N
1584519695.8,286046999.8,N
1584519715.7,286047000.4,N
1584519735.5,286047000.6,N
1584519755.3,286047002.0,N
1584519775.2,286047002.6,N
1584519795.0,286047003.8,N
1584519795.9,286047003.8,N
1584519815.7,286047002.6,N
1584519835.6,286046999.8,N
1584519855.4,286046998.3,N
1584519875.3,286046999.0,N
1584519895.1,286046997.2,N
1584519915.8,286046997.6,N
1584519935.7,286046998.0,N
1584519955.5,286046995.4,N
1584519975.4,286046997.9,N
1584519995.2,286046997.0,N
1584520015.0,286046997.2,N
1584520015.9,286046997.2,N
1584520035.8,286046997.8,N
1584520055.6,286046997.2,N
1584520075.4,286046995.5,N
1584520095.3,286046994.9,N
1584520115.1,286046999.3,N
1584520135.9,286046999.6,N
1584520155.7,286046998.7,N
1584520175.5,286046998.7,N
1584520195.4,286047000.8,N
1584520215.2,286047000.2,N
1584520235.0,286047000.1,N
1584520236.0,286047000.1,N
1584520255.8,286047001.0,N
1584520275.6,286046999.2,N
1584520295.5,286046999.2,N
1584520315.3,286046997.8,N
1584520335.1,286046995.1,N
1584520355.9,286046996.9,N
1584520375.7,286046996.7,N
1584520395.6,286046997.5,N
1584520415.4,286046995.2,Y
1584520435.2,286046999.4,P
1584520455.1,286046996.9,P
1584520456.0,286046996.9,P
1584520475.8,286046999.6,N
1584520495.7,286046996.8,N
1584520515.5,286046997.8,N
1584520535.3,286046997.0,N
1584520555.2,286046998.4,N
1584520575.0,286047001.1,N
1584520575.9,286047001.1,N
1584520595.7,286047000.8,N
1584520615.6,286046999.2,N
1584520635.4,286046998.9,N
1584520655.3,286046999.2,N
1584520675.1,286046997.7,N
1584520676.0,286046997.7,N
1584520695.8,286046997.7,N
1584520715.7,286046998.0,N
1584520735.5,286046995.4,Y
1584520755.4,286046999.6,P
1584520775.2,286046999.2,N
1584520795.0,286046998.7,P
1584520795.9,286046998.7,Y
1584520815.8,286047000.6,P
1584520835.6,286047000.1,N
1584520855.5,286047000.6,N
1584520875.3,286047000.4,N
1584520895.1,286047002.0,Y
1584520915.9,286047004.4,P
1584520935.7,286047000.1,N
1584520955.6,286047001.2,N
1584520975.4,286047000.2,N
1584520995.2,286047001.2,N
1584521015.1,286046998.2,N
1584521016.0,286046998.2,N
1584521035.8,286046998.8,N
1584521055.7,286047001.0,N
1584521075.5,286046998.6,N
15845210951584521155.1,286046998.8,P
1584521175.9,286047000.8,P
1584521195.7,286047000.4,N
1584521215.6,286047001.5,N
1584521235.4,286047001.9,N
1584521255.2,286046999.9,N
1584521275.1,286046999.7,N
1584521276.0,286046999.7,N
1584521295.8,286047000.9,N
1584521315.7,286047000.9,N
1584521335.5,286047001.2,N
1584521355.3,286046999.9,N
1584521375.2,286046998.8,N
1584521395.9,286047000.3,N
1584521415.7,286046996.5,Y
1584521435.6,286046996.9,P
1584521455.4,286046999.4,N
1584521475.3,286046997.0,N
1584521495.1,286046999.3,N
1584521496.0,286046999.3,N
1584521515.8,286046995.0,Y
1584521535.7,286046996.7,P
1584521555.5,286046998.7,N
1584521575.4,286046996.6,P
1584521595.2,286047000.9,N
1584521615.0,286046998.8,N
1584521615.9,286046998.8,N
1584521635.8,286046998.6,N
1584521655.6,286046996.9,N
1584521675.4,286046997.0,N
1584521695.3,286046999.6,N
1584521715.1,286046997.5,N
1584521735.9,286046997.7,N
1584521755.7,286046994.9,Y
1584521775.5,286046998.5,P
1584521795.4,286046999.6,N
1584521815.2,286046996.5,P
1584521835.0,286046997.0,N
1584521836.0,286046997.0,N
1584521855.8,286046997.0,N
1584521875.6,286046998.6,N
1584521895.5,286047000.5,N
1584521915.3,286047001.1,N
1584521935.1,286046999.7,N
1584521955.9,286047000.9,N
1584521975.7,286047000.3,N
1584521995.6,286046999.3,N
